weather.gov     
National Weather Service

Regional Weather Roundup
NWS Homepage
This page is being discontinued on March 12, 2014.
The same data is available at this site. Please update your bookmarks.
Thank you, and we apologize for the inconvenience.
Please send an email to SR-SRH.Webmaster@noaa.gov with any concerns.


Current Version
Previous Version:    01  02  03  04  05  06  07  08  09  
[Printable]
100
ASUS42 KTBW 221710
RWRFL
FLORIDA REGIONAL WEATHER ROUNDUP
NATIONAL WEATHER SERVICE TAMPA BAY RUSKIN FL
100 PM EDT FRI AUG 22 2014

NOTE: "FAIR" INDICATES FEW OR NO CLOUDS BELOW 12,000 FEET WITH NO
SIGNIFICANT WEATHER AND/OR OBSTRUCTIONS TO VISIBILITY.


FLZ001>010-012>015-112-114-115-221800-
PANHANDLE FLORIDA

CITY           SKY/WX    TMP DP  RH WIND       PRES   REMARKS
PENSACOLA      SUNNY     91  73  55 NE8       30.10F HX  99
PENSACOLA NAS  MOSUNNY   93  73  52 NW6       30.09F HX 102
MILTON NAS     MOSUNNY   92  73  53 NW8       30.11F HX 100
CRESTVIEW      MOSUNNY   95  74  50 NW8       30.11F HX 105
DUKE FIELD     MOSUNNY   93  78  59 VRB5      30.10F HX 108
VALPARAISO     MOSUNNY   94  72  48 NE7       30.09F HX 102
MARY ESTHER    DRIZZLE   94  68  42 CALM      30.08F HX  99
TRI COUNTY     FAIR      92  75  57 VRB5      30.09F HX 103
PANAMA CITY    FAIR      94  76  55 N5        30.08F HX 106
TYNDALL AFB    MOSUNNY   92  78  62 VRB3      30.09F HX 107
APALACHICOLA   SUNNY     95  76  53 NW5       30.07F HX 108

STATION/POSITION SKY/WX   TEMP    WIND        PRES    WAVE   SWELL
                          AIR SEA DIR/SP/G            HT/PER HT/PER
                          (F)     (DEG/KT/KT) (MB)    (FT/S) (FT/S)
30.1N   87.6W              86 88  330/  2/  2 1019.5F   1
29.2N   88.2W              86 89  340/  8/  8 1020.0F
28.8N   86.0W              85 88  350/ 10/ 12 1019.4R   1
PANAMA CITY BEAC           86 80  240/  7/  7 1018.8F
CAPE SAN BLAS    NOT AVBL
TOWER C                    84     310/  4/  5 1018.7F
28.5N   84.5W              85 87  350/  8/  8 1019.1F   1/ 3

$$
FLZ011-016>038-118-127-128-134-139-239-221800-
NORTH FLORIDA

CITY           SKY/WX    TMP DP  RH WIND       PRES   REMARKS
MARIANNA       PTSUNNY   93  76  57 NE7       30.08F HX 105
TALLAHASSEE    MOSUNNY   97  70  41 N9        30.08F HX 103
PERRY          SUNNY     91  70  49 NW6       30.09F HX  97
CROSS CITY       N/A     94  75  54 CALM      30.07F HX 105
GAINESVILLE    SUNNY     92  75  57 MISG      30.07F HX 103
MAYPORT NAS    MOSUNNY   94  75  54 VRB3      30.06S HX 105
JACKSONVILLE   MOSUNNY   94  73  50 VRB6      30.05F HX 103
JAX NAS        MOSUNNY   95  74  50 VRB3      30.06F HX 105
JAX CRAIG      SUNNY     94  73  50 NW8       30.06F HX 103
JAX CECIL      MOSUNNY   93  73  52 N8        30.06F HX 102
FERNANDINA BEA FAIR      95  72  46 N5        30.05S HX 103
ST AUGUSTINE   SUNNY     97  68  38 VRB5      30.06F HX 101

STATION/POSITION SKY/WX   TEMP    WIND        PRES    WAVE   SWELL
                          AIR SEA DIR/SP/G            HT/PER HT/PER
                          (F)     (DEG/KT/KT) (MB)    (FT/S) (FT/S)
SHELL POINT                87     160/  3/  4   N/A
KEATON BEACH               86     250/  7/  7 1018.7F
CEDAR KEY                  87     250/  5/  7 1019.4S
FERNANDINA                 91 85   10/  5/  7 1017.5F
30.7N   81.3W                 84                N/A     1/10
MAYPORT                    91 84  310/  4/  8   N/A
31.4N   80.9W              85 87  290/  4/  4 1017.8F   1/ 8
ST AUGUSTINE               84      80/  5/  5 1018.8F

$$
FLZ040-043>046-052-053-057-058-063-144-221800-
INTERIOR CENTRAL FLORIDA

CITY           SKY/WX    TMP DP  RH WIND       PRES   REMARKS
OCALA          SUNNY     91  73  55 NW6       30.07F HX 100
LEESBURG       SUNNY     92  73  53 SW6       30.07F HX 100
SANFORD        MOSUNNY   92  74  55 VRB3      30.06F HX 101
ORLANDO EXEC   PTSUNNY   92  75  57 S6        30.06F HX 103
ORLANDO INTL   PTSUNNY   91  74  57 SW5       30.06F HX 100
KISSIMMEE      MOSUNNY   91  75  59 CALM      30.08F HX 102
WINTER HAVEN   SUNNY     93  72  50 CALM      30.09F HX 101
LAKELAND       MOSUNNY   91  70  49 CALM      30.08F HX  97
BARTOW         PTSUNNY   93  72  49 W5        30.08F HX 100
OKEECHOBEE     SUNNY     90  75  62 MISG      30.08F HX 100

$$
FLZ041-047-054-059-064-141-147-221800-
EAST CENTRAL FLORIDA

CITY           SKY/WX    TMP DP  RH WIND       PRES   REMARKS
ORMOND BEACH   SUNNY     91  73  55 W3        30.07S HX 100
DAYTONA BEACH  MOSUNNY   92  73  53 CALM      30.06F HX 100
DELAND         MOSUNNY   91  73  55 CALM      30.08F HX 100
NEW SMYRNA BEA SUNNY     88  73  62 E7        30.07F HX  96
JFK SPACE CTR  MOSUNNY   91 N/A N/A VRB3      30.06F
TITUSVILLE     MOSUNNY   90  79  70 E9        30.07F HX 105
CAPE CANAVERAL MOSUNNY   89  77  68 SE7       30.06F HX 101
PATRICK AFB    MOSUNNY   88  78  72 SE9       30.07F HX 101
MELBOURNE      MOSUNNY   91  76  61 VRB6      30.06F HX 103
VERO BEACH     PTSUNNY   89  73  59 E8        30.07F HX  97
FT PIERCE      SUNNY     92  72  51 E8        30.07F HX  99
STUART         PTSUNNY   90  73  58 E10       30.08F HX  98

STATION/POSITION SKY/WX   TEMP    WIND        PRES    WAVE   SWELL
                          AIR SEA DIR/SP/G            HT/PER HT/PER
                          (F)     (DEG/KT/KT) (MB)    (FT/S) (FT/S)
28.5N   80.2W              83 85  200/  6/  8 1019.0F
28.9N   78.5W              83 86  170/  4/  6 1018.9F   2/ 9   2/ 9
TRIDENT PIER               88 83  150/  4/  7 1017.9F
28.4N   80.5W                 83                N/A     1/ 7
27.6N   80.2W                 84                N/A     1

$$
FLZ050-056-061-142-242-148-248-149-249-151-251-155-255-
160-260-221800-
WEST CENTRAL FLORIDA

CITY           SKY/WX    TMP DP  RH WIND       PRES   REMARKS
CRYSTAL RIVER  FAIR      91  73  55 W5        30.07F HX 100
INVERNESS      FAIR      91  63  38 CALM      30.08F
BROOKSVILLE    SUNNY     93  72  50 VRB3      30.08F HX 101
ZEPHYRHILLS    FAIR      91  70  49 NE5       30.09F HX  97
CLEARWATER     MOSUNNY   91  74  57 E5        30.07F HX 100
TAMPA INTL     MOSUNNY   90  75  61 SW7       30.07F HX 100
TAMPA EXEC     SUNNY     95  72  46 NE3       30.07F HX 103
MACDILL AFB    SUNNY     93  80  65 W5        30.08F HX 112
ST PETERSBURG  SUNNY     90  77  65 SE7       30.06F THUNDER HX 103
SARASOTA       MOSUNNY   94  76  55 W8        30.06F HX 106
VENICE           N/A    N/A N/A N/A MISG        N/A

STATION/POSITION SKY/WX   TEMP    WIND        PRES    WAVE   SWELL
                          AIR SEA DIR/SP/G            HT/PER HT/PER
                          (F)     (DEG/KT/KT) (MB)    (FT/S) (FT/S)
CEDAR KEY                  87     250/  5/  7 1019.4S
28.5N   84.5W              85 87  350/  8/  8 1019.1F   1/ 3
27.3N   84.3W                 89                N/A     1/ 8
CLEARWATER BEACH           87 89  330/  9/ 10 1018.3F
MIDDLE TAMPA BAY           85      50/  2/  4 1018.9F
VENICE                     86 89  250/  7/  8 1018.1F

$$
FLZ066-069-070-075>078-162-262-165-265-221800-
SOUTHWEST FLORIDA AND KEYS

CITY           SKY/WX    TMP DP  RH WIND       PRES   REMARKS
PUNTA GORDA    SUNNY     93  73  52 E6        30.08F HX 102
FT MYERS       MOSUNNY   91  71  51 N5        30.06F HX  97
SOUTHWEST INTL MOSUNNY   93  71  48 NE5       30.06F HX 100
NAPLES         MOSUNNY   92  72  51 CALM      30.06F HX  99
MARCO ISLAND   SUNNY     90  73  58 CALM      30.06F HX  98
MARATHON       SUNNY     92  74  55 SE6       30.06F HX 101
KEY WEST NAS   CLOUDY    91  75  59 E9        30.06S HX 101
KEY WEST INTL  MOSUNNY   91  76  61 E9        30.06F HX 103

STATION/POSITION SKY/WX   TEMP    WIND        PRES    WAVE   SWELL
                          AIR SEA DIR/SP/G            HT/PER HT/PER
                          (F)     (DEG/KT/KT) (MB)    (FT/S) (FT/S)
VENICE                     86 89  250/  7/  8 1018.1F
NAPLES                     89     280/  4/  6 1018.7F
DRY TORTUGAS               86     160/  6/  7 1017.8F
NW FL BAY                  87     110/  6/  7 1018.5S
SAND KEY                   85     100/  7/  9 1017.9F
SOMBRERO KEY               87      90/  8/  9 1018.5F
LONG KEY                   87 89  100/  8/  9 1019.0F
MOLASSES REEF              85 88   90/  7/  9 1017.9F

$$
FLZ067-068-071>074-168-172>174-221800-
SOUTHEAST FLORIDA

CITY           SKY/WX    TMP DP  RH WIND       PRES   REMARKS
W PALM BEACH   MOSUNNY   91  73  55 E8        30.06F HX  99
FT LAUDER-EXEC MOSUNNY   92  77  61 E13       30.05F HX 105
FT LAUDERDALE  MOSUNNY   91  74  57 SE10      30.05F HX 100
POMPANO BEACH  MOSUNNY   92  77  61 SE12      30.06F HX 105
PEMBROKE PINES MOSUNNY   91  74  57 E9        30.07F HX 100
OPA LOCKA      PTSUNNY   92  74  55 SE8       30.06F HX 101
MIAMI          PTSUNNY   90  76  63 SE9       30.06F HX 101
WEST KENDALL   MOSUNNY   91  73  55 E8        30.06F HX  99
HOMESTEAD      SUNNY     90  75  62 E8        30.06F HX 100

STATION/POSITION SKY/WX   TEMP    WIND        PRES    WAVE   SWELL
                          AIR SEA DIR/SP/G            HT/PER HT/PER
                          (F)     (DEG/KT/KT) (MB)    (FT/S) (FT/S)
PORT EVERGLADES            88      90/  5/  9 1017.9
VIRGINIA KEY               86 89   90/  7/  9   N/A
LAKE WORTH                 86 88  100/  6/  6 1018.1F
FOWEY ROCKS                85 88  100/  6/  7 1018.5F
SETTLEMENT POINT           86      40/  2/  3 1019.2F

$$





U.S. Dept. of Commerce
NOAA National Weather Service
1325 East West Highway
Silver Spring, MD 20910
E-mail: w-nws.webmaster@noaa.gov
Page last modified: May 16, 2007
NATIONAL WEATHER SERVICE: for Safety, for Work, for Fun - FOR LIFE